Orbital Elements at Epoch 2459200.5 (2020-Dec-17.0) TDB
Reference: JPL 24 (heliocentric ecliptic J2000)
Element | Value | Uncertainty (1-sigma) | Units |
e | .167375532147192 | 3.1639e-08 | |
a | 2.305201913370626 | 7.9911e-09 | au |
q | 1.919367516413492 | 7.4961e-08 | au |
i | 3.547585964181421 | 4.6554e-06 | deg |
node | 293.4593514943915 | 5.8079e-05 | deg |
peri | 90.2475311132885 | 6.0052e-05 | deg |
M | 86.03066936497812 | 1.4357e-05 | deg |
tp | 2458894.998965548690 (2020-Feb-15.49896555) | 5.0628e-05 | TDB |
period | 1278.38564100773 3.50 | 6.6474e-06 1.82e-08 | d yr |
n | .281605165493112 | 1.4643e-09 | deg/d |
Q | 2.691036310327759 | 9.3286e-09 | au |
|
| | Orbit Determination Parameters
Additional Information
|